"startDT [UTC]","vpos","CH4 [ppm]","stdev(CH4) [ppm]","CO2 [ppm]","stdev(CO2) [ppm]","H2O_reported [%]","stdev(H2O_reported)","CavityPressure [torr]","CavityTemp [C]","OutletValve","CH4_dry [ppm]","CO2_dry [ppm]","DasTemp [C]","EtalonTemp [C]","WarmBoxTemp [C]","MPVPosition","T_ECpre [C]","T_EC1 [C]","T_EC2 [C]","p_inlet [hPa]","p_in [hPa]","p_out [hPa]","T_inlet [C]","RH_inlet [%]","dwpt_inlet [C]","T_vent [C]","RH_vent [%]","dwpt_vent [C]","flow_vent [l min-1]","flow_inlet [l min-1]","dwpt_sample [C]","T_room [C]"
2013-12-03 00:00:00,0.0,1.90938,0.00028,401.484,0.000,0.1695,0.0015,140.005,45.000,31627.51906,1.91267,402.305,32.625,45.059,45.000,0.00,0.11,-272.57,-272.64,-17,570,-0,19.3,5.6,-19.9,19.4,5.9,-19.3,5.73,2.54,-12.2,25.8
2013-12-03 00:01:00,0.0,1.90971,0.00025,401.516,0.024,0.1687,0.0012,140.000,45.000,31625.55597,1.91284,402.329,32.625,45.059,45.000,0.00,0.11,-272.57,-272.64,-17,570,-0,19.3,5.6,-19.9,19.4,5.9,-19.3,5.73,2.54,-12.3,25.8
2013-12-03 00:02:00,0.0,1.90965,0.00039,401.504,0.033,0.1697,0.0018,140.002,45.000,31625.95760,1.91287,402.333,32.625,45.059,45.000,0.00,0.11,-272.58,-272.64,-17,571,-0,19.3,5.7,-19.9,19.4,5.9,-19.3,5.73,2.55,-12.3,25.8
2013-12-03 00:03:00,0.0,1.90960,0.00030,401.468,0.000,0.1690,0.0032,140.001,45.000,31626.16178,1.91278,402.284,32.625,45.059,45.000,0.00,0.11,-272.58,-272.64,-17,571,-0,19.3,5.7,-19.9,19.4,5.9,-19.3,5.73,2.56,-12.3,25.8
2013-12-03 00:04:00,0.0,1.90964,0.00027,401.468,0.000,0.1700,0.0006,140.004,45.000,31627.01972,1.91287,402.293,32.625,45.059,45.000,0.00,0.11,-272.57,-272.64,-17,570,-0,19.3,5.7,-19.8,19.4,6.0,-19.2,5.73,2.58,-12.2,25.8
2013-12-03 00:05:00,0.0,1.91010,0.00058,401.468,0.000,0.1709,0.0006,140.000,45.000,31625.12059,1.91313,402.294,32.625,45.059,45.000,0.00,0.11,-272.58,-272.64,-17,570,-0,19.3,5.7,-19.8,19.4,6.0,-19.2,5.73,2.59,-12.2,25.8
2013-12-03 00:06:00,0.0,1.90990,0.00036,401.468,0.000,0.1705,0.0017,140.006,45.000,31626.38666,1.91319,402.296,32.625,45.059,45.000,0.00,0.11,-272.58,-272.64,-17,570,-0,19.3,5.7,-19.8,19.4,6.0,-19.2,5.73,2.59,-12.2,25.8
2013-12-03 00:07:00,0.0,1.90985,0.00013,401.468,0.000,0.1701,0.0015,140.002,45.000,31623.28640,1.91312,402.291,32.625,45.059,45.000,0.00,0.11,-272.57,-272.64,-17,570,-0,19.3,5.7,-19.9,19.4,5.9,-19.3,5.73,2.59,-12.2,25.8
2013-12-03 00:08:00,0.0,1.90946,0.00015,401.468,0.000,0.1702,0.0015,140.002,45.000,31622.18946,1.91273,402.294,32.625,45.059,45.000,0.00,0.11,-272.58,-272.64,-17,571,-0,19.3,5.7,-19.9,19.4,5.9,-19.3,5.73,2.58,-12.2,25.8
2013-12-03 00:09:00,0.0,1.90936,0.00022,401.468,0.000,0.1704,0.0015,140.009,45.000,31626.78385,1.91260,402.295,32.625,45.059,45.000,0.00,0.11,-272.58,-272.64,-17,571,-0,19.3,5.6,-19.9,19.4,5.9,-19.3,5.73,2.57,-12.2,25.8
2013-12-03 00:10:00,0.0,1.90903,0.00045,401.468,0.000,0.1698,0.0013,140.000,45.000,31624.54804,1.91226,402.290,32.625,45.059,45.000,0.00,0.11,-272.57,-272.64,-17,570,-0,19.3,5.6,-19.9,19.4,5.9,-19.3,5.73,2.55,-12.2,25.8
2013-12-03 00:11:00,0.0,1.90943,0.00032,401.468,0.000,0.1711,0.0021,140.007,45.000,31624.85769,1.91261,402.295,32.625,45.059,45.000,0.00,0.11,-272.57,-272.64,-17,570,-0,19.3,5.7,-19.9,19.4,5.9,-19.3,5.73,2.54,-12.2,25.7
2013-12-03 00:12:00,0.0,1.90958,0.00048,401.468,0.000,0.1706,0.0019,140.000,45.000,31621.27144,1.91267,402.294,32.621,45.059,45.000,0.00,0.11,-272.58,-272.64,-17,570,-0,19.3,5.6,-19.9,19.4,5.9,-19.3,5.73,2.54,-12.2,25.8
2013-12-03 00:13:00,0.0,1.90931,0.00027,401.468,0.000,0.1690,0.0011,139.995,45.000,31619.94023,1.91265,402.289,32.625,45.059,45.000,0.00,0.11,-272.57,-272.64,-17,570,-0,19.3,5.6,-19.9,19.4,5.9,-19.4,5.73,2.55,-12.2,25.8
2013-12-03 00:14:00,0.0,1.90950,0.00035,401.474,0.048,0.1689,0.0018,140.001,45.000,31622.27732,1.91263,402.289,32.620,45.059,45.000,0.00,0.11,-272.57,-272.64,-17,570,-0,19.3,5.6,-20.0,19.4,5.9,-19.4,5.73,2.56,-12.2,25.8
2013-12-03 00:15:00,0.0,1.90971,0.00025,401.440,0.081,0.1703,0.0019,139.994,45.000,31619.59018,1.91297,402.279,32.625,45.059,45.000,0.00,0.11,-272.57,-272.64,-17,570,-0,19.3,5.6,-20.0,19.4,5.9,-19.4,5.73,2.58,-12.2,25.7
2013-12-03 00:16:00,0.0,1.90932,0.00016,401.448,0.038,0.1696,0.0025,139.994,45.000,31618.61981,1.91254,402.261,32.625,45.059,45.000,0.00,0.11,-272.58,-272.64,-17,570,-0,19.2,5.6,-20.0,19.4,5.9,-19.3,5.73,2.59,-12.2,25.7
2013-12-03 00:17:00,0.0,1.90908,0.00042,401.481,0.000,0.1704,0.0023,139.998,45.000,31620.33458,1.91244,402.305,32.625,45.059,45.000,0.00,0.11,-272.57,-272.64,-17,570,-0,19.3,5.6,-19.9,19.4,5.9,-19.3,5.73,2.59,-12.2,25.8
2013-12-03 00:18:00,0.0,1.90897,0.00058,401.481,0.000,0.1688,0.0008,140.002,45.000,31624.09754,1.91205,402.303,32.625,45.059,45.000,0.00,0.11,-272.57,-272.64,-17,570,-0,19.3,5.6,-19.9,19.4,5.9,-19.3,5.73,2.59,-12.2,25.8
2013-12-03 00:19:00,0.0,1.90918,0.00023,401.481,0.000,0.1689,0.0011,140.004,45.000,31624.88738,1.91243,402.299,32.625,45.059,45.000,0.00,0.11,-272.58,-272.64,-17,570,-0,19.3,5.6,-19.9,19.3,5.9,-19.3,5.73,2.58,-12.2,25.8
2013-12-03 00:20:00,0.0,1.90917,0.00031,401.485,0.001,0.1691,0.0014,140.002,45.000,31623.78362,1.91230,402.303,32.618,45.059,45.000,0.00,0.11,-272.58,-272.63,-17,570,-0,19.3,5.6,-19.9,19.4,5.9,-19.4,5.73,2.57,-12.2,25.8
2013-12-03 00:21:00,0.0,1.90911,0.00056,401.489,0.006,0.1678,0.0022,140.007,45.000,31623.39158,1.91241,402.302,32.625,45.059,45.000,0.00,0.11,-272.57,-272.64,-17,570,-1,19.3,5.6,-19.9,19.4,5.9,-19.3,5.73,2.55,-12.2,25.7
2013-12-03 00:22:00,0.0,1.90935,0.00042,401.498,0.000,0.1698,0.0020,140.010,45.000,31626.99918,1.91245,402.319,32.625,45.059,45.000,0.00,0.11,-272.57,-272.64,-17,570,-0,19.3,5.6,-19.9,19.4,5.9,-19.3,5.73,2.54,-12.2,25.7
2013-12-03 00:23:00,0.0,1.90924,0.00037,401.487,0.015,0.1713,0.0004,139.997,45.000,31624.11953,1.91246,402.321,32.625,45.059,45.000,0.00,0.11,-272.57,-272.64,-17,570,-0,19.3,5.7,-19.8,19.3,6.0,-19.2,5.73,2.54,-12.2,25.7
2013-12-03 00:24:00,0.0,1.90898,0.00029,401.467,0.000,0.1729,0.0021,140.002,45.000,31624.55679,1.91235,402.303,32.625,45.059,45.000,0.00,0.11,-272.57,-272.64,-17,570,-0,19.3,5.7,-19.8,19.4,6.0,-19.2,5.73,2.55,-12.2,25.7
2013-12-03 00:25:00,0.0,1.90914,0.00025,401.467,0.000,0.1731,0.0028,139.993,45.000,31620.72159,1.91223,402.308,32.625,45.059,45.000,0.00,0.11,-272.57,-272.64,-17,570,-0,19.3,5.7,-19.8,19.4,6.0,-19.1,5.73,2.56,-12.2,25.7
2013-12-03 00:26:00,0.0,1.90955,0.00033,401.467,0.000,0.1721,0.0010,140.001,45.000,31622.51378,1.91271,402.299,32.623,45.059,45.000,0.00,0.11,-272.58,-272.64,-17,570,-0,19.2,5.7,-19.8,19.3,6.0,-19.2,5.73,2.58,-12.1,25.7
2013-12-03 00:27:00,0.0,1.90941,0.00019,401.467,0.000,0.1729,0.0016,139.999,45.000,31620.63159,1.91272,402.303,32.617,45.059,45.000,0.00,0.11,-272.57,-272.64,-17,570,-0,19.2,5.7,-19.7,19.3,6.0,-19.1,5.73,2.59,-12.2,25.7
2013-12-03 00:28:00,0.0,1.90922,0.00033,401.467,0.000,0.1716,0.0014,140.004,45.000,31623.04203,1.91252,402.300,32.625,45.059,45.000,0.00,0.11,-272.57,-272.64,-17,570,-0,19.3,5.7,-19.7,19.3,6.0,-19.1,5.73,2.59,-12.2,25.7
2013-12-03 00:29:00,0.0,1.90963,0.00029,401.467,0.000,0.1723,0.0011,140.004,45.000,31622.16877,1.91276,402.300,32.613,45.059,45.000,0.00,0.11,-272.58,-272.64,-17,570,-0,19.3,5.7,-19.7,19.3,6.0,-19.1,5.73,2.59,-12.2,25.7
2013-12-03 00:30:00,0.0,1.90978,0.00029,401.467,0.000,0.1723,0.0009,139.998,45.000,31618.55725,1.91309,402.302,32.594,45.059,45.000,0.00,0.11,-272.58,-272.64,-17,570,-0,19.2,5.7,-19.7,19.3,6.0,-19.1,5.73,2.58,-12.2,25.7
2013-12-03 00:31:00,0.0,1.90978,0.00015,401.467,0.000,0.1737,0.0016,140.005,45.000,31620.40034,1.91299,402.307,32.576,45.059,45.000,0.00,0.11,-272.57,-272.63,-17,570,-0,19.2,5.8,-19.7,19.4,6.1,-19.0,5.73,2.56,-12.2,25.7
2013-12-03 00:32:00,0.0,1.90964,0.00015,401.467,0.000,0.1739,0.0022,139.992,45.000,31617.74703,1.91299,402.311,32.569,45.059,45.000,0.00,0.11,-272.58,-272.64,-17,570,-0,19.2,5.8,-19.6,19.3,6.1,-19.0,5.73,2.55,-12.2,25.8
2013-12-03 00:33:00,0.0,1.90927,0.00043,401.467,0.000,0.1738,0.0017,139.995,45.000,31619.13008,1.91265,402.307,32.563,45.059,45.000,0.00,0.11,-272.58,-272.63,-17,570,-0,19.2,5.8,-19.6,19.4,6.1,-19.0,5.73,2.54,-12.2,25.8
2013-12-03 00:34:00,0.0,1.90934,0.00028,401.467,0.000,0.1739,0.0005,140.001,45.000,31621.50158,1.91257,402.310,32.563,45.060,45.000,0.00,0.11,-272.57,-272.63,-17,570,-0,19.3,5.8,-19.6,19.3,6.1,-19.0,5.73,2.54,-12.2,25.8
2013-12-03 00:35:00,0.0,1.90947,0.00030,401.467,0.000,0.1738,0.0004,140.002,45.000,31623.25512,1.91263,402.309,32.563,45.059,45.000,0.00,0.11,-272.58,-272.64,-17,570,-0,19.3,5.8,-19.6,19.4,6.1,-19.0,5.73,2.56,-12.3,25.8
2013-12-03 00:36:00,0.0,1.90954,0.00026,401.467,0.000,0.1736,0.0012,139.994,45.000,31620.95570,1.91287,402.307,32.563,45.059,45.000,0.00,0.11,-272.58,-272.64,-17,570,-0,19.3,5.8,-19.6,19.4,6.1,-19.0,5.73,2.57,-12.2,25.8
2013-12-03 00:37:00,0.0,1.90909,0.00025,401.382,0.038,0.1746,0.0007,139.999,45.000,31624.08096,1.91243,402.238,32.563,45.059,45.000,0.00,0.11,-272.57,-272.63,-17,570,-0,19.3,5.8,-19.5,19.4,6.1,-18.9,5.73,2.59,-12.2,25.8
2013-12-03 00:38:00,0.0,1.90947,0.00040,401.355,0.000,0.1756,0.0011,139.997,45.000,31622.34691,1.91270,402.205,32.563,45.059,45.000,0.00,0.11,-272.58,-272.63,-17,570,-0,19.3,5.8,-19.5,19.4,6.1,-19.0,5.73,2.60,-12.2,25.8
2013-12-03 00:39:00,0.0,1.90944,0.00026,401.355,0.000,0.1759,0.0007,140.000,45.000,31623.43874,1.91283,402.206,32.566,45.059,45.000,0.00,0.11,-272.58,-272.64,-17,570,-0,19.2,5.8,-19.6,19.4,6.1,-19.0,5.73,2.59,-12.3,25.8
2013-12-03 00:40:00,0.0,1.90935,0.00035,401.355,0.000,0.1749,0.0014,139.997,45.000,31620.01008,1.91272,402.203,32.563,45.059,45.000,0.00,0.11,-272.58,-272.64,-17,570,-0,19.3,5.8,-19.5,19.4,6.1,-19.0,5.73,2.58,-12.3,25.8
2013-12-03 00:41:00,0.0,1.90923,0.00016,401.379,0.024,0.1754,0.0009,140.001,45.000,31622.17722,1.91246,402.224,32.581,45.059,45.000,0.00,0.11,-272.57,-272.64,-17,570,-0,19.3,5.8,-19.6,19.4,6.1,-19.0,5.73,2.56,-12.2,25.8
2013-12-03 00:42:00,0.0,1.90937,0.00054,401.403,0.000,0.1734,0.0011,140.001,45.000,31623.41438,1.91274,402.245,32.587,45.059,45.000,0.00,0.11,-272.58,-272.64,-17,570,-0,19.3,5.8,-19.6,19.4,6.1,-19.0,5.73,2.55,-12.2,25.8
2013-12-03 00:43:00,0.0,1.90906,0.00028,401.403,0.000,0.1757,0.0011,140.009,45.000,31627.79864,1.91234,402.252,32.568,45.059,45.000,0.00,0.11,-272.58,-272.64,-17,570,-0,19.3,5.8,-19.6,19.4,6.1,-19.0,5.73,2.54,-12.2,25.8
2013-12-03 00:44:00,0.0,1.90891,0.00022,401.403,0.000,0.1738,0.0026,139.993,45.000,31624.14334,1.91214,402.246,32.597,45.059,45.000,0.00,0.11,-272.57,-272.63,-17,570,-0,19.3,5.8,-19.6,19.4,6.1,-19.0,5.73,2.54,-12.2,25.8
2013-12-03 00:45:00,0.0,1.90897,0.00017,401.429,0.013,0.1734,0.0013,139.997,45.000,31625.51908,1.91230,402.268,32.598,45.059,45.000,0.00,0.11,-272.58,-272.64,-17,570,-1,19.3,5.8,-19.6,19.4,6.1,-19.0,5.73,2.55,-12.3,25.8
2013-12-03 00:46:00,0.0,1.90898,0.00014,401.422,0.021,0.1735,0.0027,140.001,45.000,31627.28911,1.91225,402.270,32.611,45.059,45.000,0.00,0.11,-272.58,-272.64,-17,570,-0,19.3,5.8,-19.6,19.4,6.1,-19.0,5.73,2.56,-12.2,25.8
2013-12-03 00:47:00,0.0,1.90923,0.00029,401.402,0.019,0.1734,0.0010,140.001,45.000,31625.81457,1.91244,402.236,32.607,45.059,45.000,0.00,0.11,-272.58,-272.64,-17,570,-0,19.3,5.8,-19.6,19.4,6.1,-19.0,5.73,2.58,-12.2,25.8
2013-12-03 00:48:00,0.0,1.90882,0.00030,401.434,0.000,0.1731,0.0009,139.992,45.000,31622.90627,1.91219,402.273,32.600,45.059,45.000,0.00,0.11,-272.57,-272.64,-17,570,-0,19.3,5.8,-19.7,19.4,6.1,-19.0,5.73,2.59,-12.2,25.8
2013-12-03 00:49:00,0.0,1.90904,0.00041,401.434,0.000,0.1717,0.0013,140.003,45.000,31626.43653,1.91222,402.267,32.612,45.059,45.000,0.00,0.11,-272.58,-272.64,-17,570,-0,19.3,5.7,-19.8,19.4,6.0,-19.2,5.73,2.59,-12.2,25.7
2013-12-03 00:50:00,0.0,1.90928,0.00036,401.434,0.000,0.1689,0.0015,140.007,45.000,31625.05732,1.91233,402.253,32.621,45.059,45.000,0.00,0.11,-272.58,-272.64,-17,570,-0,19.3,5.6,-19.9,19.4,5.9,-19.3,5.73,2.59,-12.2,25.7
2013-12-03 00:51:00,0.0,1.90923,0.00011,401.434,0.000,0.1698,0.0017,140.001,45.000,31625.75233,1.91254,402.256,32.625,45.059,45.000,0.00,0.11,-272.58,-272.64,-17,570,-0,19.3,5.6,-19.9,19.4,5.9,-19.3,5.73,2.58,-12.2,25.8
2013-12-03 00:52:00,0.0,1.90871,0.00023,401.434,0.000,0.1702,0.0014,140.008,45.000,31626.90056,1.91199,402.259,32.625,45.059,45.000,0.00,0.11,-272.57,-272.64,-17,570,-0,19.3,5.7,-19.9,19.4,5.9,-19.3,5.73,2.56,-12.2,25.8
2013-12-03 00:53:00,0.0,1.90931,0.00030,401.434,0.000,0.1719,0.0013,140.001,45.000,31622.53028,1.91239,402.266,32.625,45.059,45.000,0.00,0.11,-272.58,-272.64,-17,570,-0,19.3,5.7,-19.8,19.4,6.0,-19.2,5.73,2.55,-12.2,25.8
2013-12-03 00:54:00,0.0,1.90934,0.00021,401.434,0.000,0.1707,0.0009,140.006,45.000,31624.51025,1.91267,402.262,32.625,45.059,45.000,0.00,0.11,-272.57,-272.64,-17,570,-0,19.3,5.7,-19.8,19.4,6.0,-19.2,5.73,2.54,-12.2,25.8
2013-12-03 00:55:00,0.0,1.90883,0.00030,401.377,0.000,0.1696,0.0018,140.004,45.000,31625.74010,1.91201,402.202,32.619,45.059,45.000,0.00,0.11,-272.58,-272.64,-17,570,-0,19.3,5.7,-19.8,19.4,6.0,-19.2,5.73,2.54,-12.2,25.8
2013-12-03 00:56:00,0.0,1.90881,0.00023,401.377,0.000,0.1714,0.0013,140.001,45.000,31623.93594,1.91211,402.209,32.619,45.059,45.000,0.00,0.11,-272.58,-272.64,-17,570,-0,19.3,5.7,-19.8,19.4,6.0,-19.2,5.73,2.55,-12.2,25.8
2013-12-03 00:57:00,0.0,1.90879,0.00024,401.377,0.000,0.1712,0.0012,140.003,45.000,31623.85515,1.91199,402.205,32.625,45.059,45.000,0.00,0.11,-272.57,-272.64,-17,570,-0,19.3,5.7,-19.9,19.4,6.0,-19.2,5.73,2.57,-12.2,25.8
2013-12-03 00:58:00,0.0,1.90918,0.00046,401.377,0.000,0.1722,0.0016,140.002,45.000,31623.13316,1.91230,402.209,32.625,45.059,45.000,0.00,0.11,-272.57,-272.64,-17,570,-0,19.3,5.7,-19.8,19.4,6.0,-19.2,5.73,2.58,-12.2,25.8
2013-12-03 00:59:00,0.0,1.90883,0.00022,401.377,0.000,0.1724,0.0018,140.004,45.000,31624.15076,1.91224,402.214,32.625,45.059,45.000,0.00,0.11,-272.58,-272.64,-17,570,-0,19.3,5.7,-19.8,19.4,6.0,-19.2,5.73,2.59,-12.2,25.8
2013-12-03 01:00:00,0.0,1.90875,0.00031,401.475,0.046,0.1710,0.0024,140.011,45.000,31625.86015,1.91207,402.295,32.620,45.059,45.000,0.00,0.11,-272.58,-272.64,-17,570,-0,19.3,5.7,-19.8,19.4,6.0,-19.2,5.73,2.59,-12.2,25.8
2013-12-03 01:01:00,0.0,1.90888,0.00043,401.497,0.000,0.1697,0.0013,140.002,45.000,31622.49564,1.91185,402.320,32.610,45.059,45.000,0.00,0.11,-272.57,-272.63,-17,570,-0,19.3,5.7,-19.9,19.4,5.9,-19.2,5.73,2.58,-12.2,25.8
2013-12-03 01:02:00,0.0,1.90910,0.00016,401.440,0.063,0.1690,0.0016,140.001,45.000,31621.05558,1.91237,402.270,32.616,45.059,45.000,0.00,0.11,-272.58,-272.64,-17,570,-0,19.3,5.7,-19.9,19.4,5.9,-19.3,5.73,2.57,-12.2,25.8
2013-12-03 01:03:00,0.0,1.90881,0.00036,401.371,0.000,0.1714,0.0014,139.994,45.000,31619.44917,1.91196,402.200,32.625,45.059,45.000,0.00,0.11,-272.57,-272.64,-17,570,-0,19.3,5.7,-19.9,19.4,5.9,-19.3,5.73,2.56,-12.2,25.8
2013-12-03 01:04:00,0.0,1.90859,0.00046,401.371,0.000,0.1697,0.0005,140.009,45.000,31623.63621,1.91189,402.194,32.625,45.059,45.000,0.00,0.11,-272.57,-272.64,-17,570,-0,19.3,5.7,-19.9,19.4,5.9,-19.2,5.73,2.54,-12.2,25.8
2013-12-03 01:05:00,0.0,1.90849,0.00039,401.371,0.000,0.1728,0.0021,139.995,45.000,31619.94821,1.91181,402.204,32.615,45.059,45.000,0.00,0.11,-272.57,-272.64,-17,570,-0,19.3,5.7,-19.8,19.4,6.0,-19.2,5.73,2.54,-12.2,25.8
2013-12-03 01:06:00,0.0,1.90910,0.00038,401.371,0.000,0.1721,0.0004,139.998,45.000,31620.43157,1.91220,402.207,32.624,45.059,45.000,0.00,0.11,-272.58,-272.64,-17,570,-0,19.3,5.7,-19.8,19.4,6.0,-19.2,5.73,2.55,-12.2,25.8
2013-12-03 01:07:00,0.0,1.90906,0.00041,401.371,0.000,0.1721,0.0019,139.998,45.000,31620.97281,1.91231,402.204,32.621,45.059,45.000,0.00,0.11,-272.57,-272.64,-17,570,-0,19.3,5.7,-19.8,19.4,6.0,-19.2,5.73,2.56,-12.2,25.8
2013-12-03 01:08:00,0.0,1.90868,0.00025,401.371,0.000,0.1739,0.0017,139.998,45.000,31621.11033,1.91206,402.212,32.612,45.059,45.000,0.00,0.11,-272.57,-272.64,-17,570,-0,19.3,5.7,-19.7,19.4,6.0,-19.1,5.73,2.58,-12.2,25.8
2013-12-03 01:09:00,0.0,1.90876,0.00042,401.371,0.000,0.1742,0.0017,140.013,45.000,31626.19086,1.91199,402.216,32.624,45.059,45.000,0.00,0.11,-272.58,-272.64,-17,570,-0,19.3,5.7,-19.7,19.4,6.0,-19.1,5.73,2.59,-12.2,25.8
2013-12-03 01:10:00,0.0,1.90876,0.00048,401.371,0.000,0.1718,0.0012,140.003,45.000,31623.78720,1.91203,402.206,32.618,45.059,45.000,0.00,0.11,-272.57,-272.64,-17,570,-0,19.3,5.7,-19.7,19.4,6.0,-19.1,5.73,2.59,-12.2,25.8
2013-12-03 01:11:00,0.0,1.90849,0.00029,401.359,0.010,0.1717,0.0011,140.003,45.000,31625.15311,1.91177,402.193,32.620,45.059,45.000,0.00,0.11,-272.57,-272.64,-17,570,-0,19.3,5.7,-19.8,19.4,6.0,-19.1,5.73,2.59,-12.2,25.8
2013-12-03 01:12:00,0.0,1.90870,0.00052,401.350,0.000,0.1724,0.0011,140.010,45.000,31625.75982,1.91196,402.184,32.625,45.059,45.000,0.00,0.11,-272.58,-272.64,-17,570,-0,19.3,5.7,-19.8,19.4,6.0,-19.1,5.73,2.58,-12.2,25.8
2013-12-03 01:13:00,0.0,1.90872,0.00031,401.346,0.000,0.1718,0.0011,140.006,45.000,31624.02805,1.91181,402.180,32.619,45.059,45.000,0.00,0.11,-272.58,-272.64,-17,570,-0,19.3,5.7,-19.8,19.4,6.0,-19.2,5.73,2.56,-12.2,25.8
2013-12-03 01:14:00,0.0,1.90858,0.00031,401.346,0.000,0.1723,0.0016,140.002,45.000,31622.50436,1.91197,402.180,32.625,45.059,45.000,0.00,0.11,-272.58,-272.64,-17,570,-0,19.3,5.7,-19.8,19.4,6.0,-19.2,5.73,2.55,-12.2,25.8
2013-12-03 01:15:00,0.0,1.90855,0.00016,401.346,0.000,0.1717,0.0016,140.000,45.000,31622.60365,1.91180,402.179,32.623,45.059,45.000,0.00,0.11,-272.57,-272.63,-17,570,-0,19.3,5.7,-19.8,19.4,6.0,-19.2,5.73,2.54,-12.2,25.8
2013-12-03 01:16:00,0.0,1.90835,0.00047,401.346,0.000,0.1726,0.0017,140.005,45.000,31625.37469,1.91161,402.181,32.620,45.059,45.000,0.00,0.11,-272.58,-272.64,-17,570,-0,19.3,5.7,-19.8,19.4,6.0,-19.2,5.73,2.54,-12.2,25.8
2013-12-03 01:17:00,0.0,1.90886,0.00017,401.346,0.000,0.1726,0.0011,139.998,45.000,31622.20140,1.91206,402.181,32.615,45.059,45.000,0.00,0.11,-272.57,-272.64,-17,570,-0,19.3,5.7,-19.8,19.4,6.0,-19.2,5.73,2.56,-12.2,25.8
2013-12-03 01:18:00,0.0,1.90832,0.00032,401.346,0.000,0.1726,0.0013,139.999,45.000,31625.47164,1.91168,402.183,32.617,45.059,45.000,0.00,0.11,-272.57,-272.64,-17,570,-0,19.3,5.7,-19.8,19.4,6.0,-19.1,5.73,2.58,-12.2,25.8
2013-12-03 01:19:00,0.0,1.90850,0.00029,401.346,0.000,0.1719,0.0017,140.005,45.000,31627.19709,1.91171,402.180,32.625,45.059,45.000,0.00,0.11,-272.58,-272.64,-17,570,-0,19.3,5.7,-19.8,19.4,6.0,-19.1,5.73,2.59,-12.2,25.8
2013-12-03 01:20:00,0.0,1.90854,0.00013,401.346,0.000,0.1715,0.0018,140.004,45.000,31625.88914,1.91176,402.177,32.625,45.059,45.000,0.00,0.11,-272.57,-272.64,-17,570,-0,19.3,5.7,-19.8,19.4,6.0,-19.2,5.73,2.60,-12.2,25.8
2013-12-03 01:21:00,0.0,1.90826,0.00007,401.346,0.000,0.1709,0.0015,139.992,45.000,31622.48942,1.91154,402.174,32.625,45.059,45.000,0.00,0.11,-272.57,-272.64,-17,570,-1,19.3,5.7,-19.9,19.4,6.0,-19.2,5.73,2.59,-12.2,25.8
2013-12-03 01:22:00,0.0,1.90856,0.00038,401.346,0.000,0.1698,0.0022,139.998,45.000,31624.76571,1.91179,402.168,32.612,45.059,45.000,0.00,0.11,-272.58,-272.64,-17,570,-0,19.3,5.7,-19.9,19.4,5.9,-19.3,5.73,2.58,-12.2,25.8
2013-12-03 01:23:00,0.0,1.90860,0.00052,401.370,0.028,0.1697,0.0012,139.998,45.000,31624.20080,1.91171,402.190,32.625,45.059,45.000,0.00,0.11,-272.57,-272.64,-17,570,-0,19.3,5.7,-19.9,19.4,5.9,-19.3,5.73,2.56,-12.2,25.7
2013-12-03 01:24:00,0.0,1.90867,0.00031,401.387,0.000,0.1709,0.0022,140.004,45.000,31626.72787,1.91189,402.213,32.625,45.059,45.000,0.00,0.11,-272.57,-272.63,-17,570,-0,19.3,5.6,-19.9,19.4,5.9,-19.3,5.73,2.54,-12.2,25.8
2013-12-03 01:25:00,0.0,1.90880,0.00025,401.373,0.012,0.1689,0.0008,139.998,45.000,31624.74777,1.91196,402.197,32.625,45.059,45.000,0.00,0.11,-272.57,-272.64,-17,570,-0,19.3,5.6,-19.9,19.4,5.9,-19.3,5.73,2.53,-12.2,25.8
2013-12-03 01:26:00,0.0,1.90866,0.00020,401.363,0.000,0.1686,0.0021,140.004,45.000,31626.42202,1.91193,402.179,32.625,45.059,45.000,0.00,0.11,-272.58,-272.64,-17,570,-0,19.3,5.6,-19.9,19.4,5.9,-19.4,5.73,2.55,-12.2,25.8
2013-12-03 01:27:00,0.0,1.90843,0.00046,401.363,0.000,0.1679,0.0026,139.995,45.000,31623.52194,1.91150,402.177,32.625,45.059,45.000,0.00,0.11,-272.58,-272.64,-17,570,-0,19.3,5.6,-20.0,19.4,5.9,-19.4,5.73,2.56,-12.2,25.8
2013-12-03 01:28:00,0.0,1.90851,0.00013,401.363,0.000,0.1703,0.0003,140.004,45.000,31626.92703,1.91178,402.186,32.625,45.059,45.000,0.00,0.11,-272.57,-272.63,-17,570,-0,19.3,5.6,-20.0,19.4,5.9,-19.4,5.73,2.58,-12.2,25.8
2013-12-03 01:29:00,0.0,1.90836,0.00034,401.363,0.000,0.1700,0.0021,140.002,45.000,31626.70085,1.91161,402.188,32.625,45.059,45.000,0.00,0.11,-272.58,-272.64,-17,570,-0,19.3,5.6,-19.9,19.4,5.9,-19.4,5.73,2.59,-12.2,25.8
2013-12-03 01:30:00,0.0,1.90849,0.00026,401.363,0.000,0.1704,0.0029,139.996,45.000,31623.20452,1.91170,402.186,32.625,45.059,45.000,0.00,0.11,-272.58,-272.64,-17,570,-0,19.3,5.6,-19.9,19.4,5.9,-19.4,5.73,2.60,-12.2,25.8
2013-12-03 01:31:00,0.0,1.90851,0.00043,401.363,0.000,0.1687,0.0014,140.008,45.000,31627.44677,1.91161,402.182,32.625,45.059,45.000,0.00,0.11,-272.57,-272.64,-17,570,-0,19.3,5.6,-20.0,19.4,5.9,-19.4,5.73,2.59,-12.2,25.8
2013-12-03 01:32:00,0.0,1.90886,0.00024,401.423,0.000,0.1673,0.0019,139.998,45.000,31625.17477,1.91204,402.229,32.625,45.059,45.000,0.00,0.11,-272.58,-272.64,-17,570,-0,19.3,5.6,-20.0,19.4,5.9,-19.4,5.73,2.57,-12.2,25.8
2013-12-03 01:33:00,0.0,1.90853,0.00029,401.422,0.000,0.1692,0.0009,139.997,45.000,31625.36570,1.91175,402.240,32.626,45.059,45.000,0.00,0.11,-272.58,-272.64,-17,570,-0,19.3,5.6,-20.0,19.4,5.9,-19.4,5.73,2.55,-12.2,25.9
2013-12-03 01:34:00,0.0,1.90863,0.00016,401.422,0.000,0.1706,0.0008,140.007,45.000,31628.49171,1.91181,402.247,32.625,45.059,45.000,0.00,0.11,-272.57,-272.63,-17,570,-0,19.3,5.6,-20.0,19.4,5.9,-19.4,5.73,2.54,-12.2,25.8
2013-12-03 01:35:00,0.0,1.90888,0.00028,401.402,0.033,0.1699,0.0020,140.004,45.000,31627.90572,1.91203,402.232,32.625,45.059,45.000,0.00,0.11,-272.57,-272.64,-17,570,-1,19.3,5.6,-19.9,19.4,5.9,-19.4,5.73,2.55,-12.2,25.8
2013-12-03 01:36:00,0.0,1.90884,0.00045,401.347,0.000,0.1695,0.0013,139.999,45.000,31626.24484,1.91212,402.169,32.632,45.059,45.000,0.00,0.11,-272.58,-272.64,-17,570,-1,19.3,5.6,-19.9,19.4,5.9,-19.4,5.73,2.55,-12.2,25.8
2013-12-03 01:37:00,0.0,1.90880,0.00026,401.347,0.000,0.1692,0.0022,140.001,45.000,31628.46940,1.91185,402.164,32.626,45.059,45.000,0.00,0.11,-272.57,-272.64,-17,570,-0,19.3,5.6,-19.9,19.4,5.9,-19.3,5.73,2.57,-12.2,25.8
2013-12-03 01:38:00,0.0,1.90866,0.00076,401.461,0.054,0.1718,0.0014,140.001,45.000,31628.36534,1.91195,402.280,32.625,45.059,45.000,0.00,0.11,-272.57,-272.64,-17,570,-1,19.3,5.6,-20.0,19.4,5.9,-19.3,5.73,2.59,-12.2,25.9
2013-12-03 01:39:00,0.0,1.90894,0.00033,401.486,0.000,0.1675,0.0018,139.996,45.000,31627.54369,1.91203,402.301,32.625,45.059,45.000,0.00,0.11,-272.58,-272.64,-17,570,-1,19.3,5.6,-20.0,19.4,5.9,-19.4,5.73,2.60,-12.2,25.8
2013-12-03 01:40:00,0.0,1.90885,0.00028,401.486,0.000,0.1686,0.0017,140.002,45.000,31628.03536,1.91208,402.302,32.628,45.059,45.000,0.00,0.11,-272.58,-272.64,-17,570,-1,19.3,5.6,-20.0,19.4,5.9,-19.4,5.73,2.59,-12.2,25.9
2013-12-03 01:41:00,0.0,1.90906,0.00037,401.460,0.042,0.1677,0.0021,140.002,45.000,31631.00241,1.91230,402.283,32.625,45.059,45.000,0.00,0.11,-272.57,-272.63,-17,570,-1,19.3,5.6,-20.1,19.4,5.8,-19.4,5.73,2.58,-12.2,25.8
2013-12-03 01:42:00,0.0,1.90867,0.00037,401.392,0.000,0.1683,0.0022,140.004,45.000,31633.67429,1.91185,402.207,32.627,45.059,45.000,0.00,0.11,-272.57,-272.64,-17,570,-0,19.3,5.6,-20.0,19.4,5.8,-19.5,5.73,2.56,-12.2,25.9
2013-12-03 01:43:00,0.0,1.90905,0.00033,401.392,0.000,0.1677,0.0009,140.002,45.000,31629.46316,1.91198,402.204,32.625,45.059,45.000,0.00,0.11,-272.58,-272.64,-17,570,-0,19.3,5.6,-20.0,19.4,5.8,-19.5,5.73,2.54,-12.2,25.9
2013-12-03 01:44:00,0.0,1.90910,0.00025,401.444,0.024,0.1687,0.0009,140.004,45.000,31628.76449,1.91233,402.255,32.625,45.059,45.000,0.00,0.11,-272.57,-272.63,-17,570,-0,19.3,5.6,-20.0,19.4,5.8,-19.4,5.73,2.54,-12.2,25.9
2013-12-03 01:45:00,0.0,1.90854,0.00047,401.462,0.000,0.1677,0.0012,139.994,45.000,31627.82375,1.91181,402.276,32.625,45.059,45.000,0.00,0.11,-272.57,-272.64,-17,571,-0,19.3,5.6,-20.0,19.4,5.8,-19.4,5.73,2.54,-12.2,25.8